Temperature
18 19 19 19 19 19 18 17 16 17 17 18 17 17 18 18 18 18 18 17 17 18 17 17 17 17 17 17 16 16 16 16 16 16 16 15 15 15 15 15 15 15 15 15
18 19 19 19 19 19 19 18 18 18 17 18 18 18 18 18 17 17 17 17 17 17 17 17 17 17 17 17 16 16 16 16 16 16 15 15 15 15 15 15 15 15 15 14
16 18 19 18 19 19 19 19 18 18 18 17 17 17 18 18 18 17 17 18 17 18 18 17 17 17 17 17 16 16 16 16 16 15 15 15 15 15 15 15 15 15 14 14
15 17 17 18 19 20 19 19 18 18 18 18 18 18 18 19 18 18 18 18 18 18 18 17 17 17 17 17 16 16 16 16 15 15 15 15 15 15 15 14 14 14 14 14
15 16 17 19 19 19 19 18 18 18 18 18 18 18 17 18 19 19 18 18 18 18 18 17 17 17 17 16 16 16 16 16 15 15 15 15 15 15 14 14 14 14 14 14
14 16 16 18 19 20 19 17 18 18 17 18 17 15 16 18 18 18 18 18 18 18 17 17 17 16 16 16 16 16 16 15 15 15 15 15 15 15 14 14 14 14 14 13
14 15 16 17 19 19 18 17 18 18 18 18 17 17 18 18 18 18 18 18 18 17 17 17 17 16 16 16 16 16 15 15 15 15 15 15 14 14 14 14 14 14 13 13
14 15 16 18 18 18 17 19 19 19 19 18 18 18 18 18 18 18 18 18 17 17 17 17 16 16 16 16 16 15 15 15 15 15 14 14 14 14 14 14 13 13 13 13
15 15 17 19 19 20 20 19 19 19 18 18 18 17 17 17 17 17 17 17 17 17 17 16 16 16 16 16 15 15 15 15 15 14 14 14 14 14 13 13 13 13 13 13
15 16 17 19 19 20 20 20 19 19 19 18 18 17 17 17 17 17 17 17 16 16 16 16 16 15 15 15 15 15 15 15 14 14 14 14 13 13 13 13 13 13 12 12
14 15 17 18 19 19 19 19 19 18 18 18 18 17 17 17 17 16 16 16 16 16 16 16 15 15 15 15 15 15 14 14 14 14 14 13 13 13 13 13 13 12 12 12
14 16 16 17 19 19 19 19 18 18 18 18 18 17 17 16 16 16 16 16 16 16 15 15 15 15 15 15 14 14 14 14 14 13 13 13 13 12 12 12 12 12 12 12
18 18 18 18 18 19 19 18 18 18 18 17 17 17 16 16 16 16 16 15 15 15 15 15 15 15 14 14 14 14 14 14 13 13 13 12 12 12 12 12 12 11 11 11
18 18 17 18 18 18 18 18 18 17 17 17 16 16 16 16 16 15 15 15 15 15 15 14 14 14 14 14 14 13 13 13 13 13 12 12 12 12 12 12 12 11 11 11
17 18 18 18 18 18 18 17 17 16 16 16 16 16 15 15 15 15 15 15 14 14 14 14 14 14 13 13 13 13 13 13 12 12 12 12 12 12 11 11 11 11 11 10
17 17 17 17 17 17 17 17 16 16 16 16 15 15 15 15 15 15 14 14 14 14 14 14 14 13 13 13 13 13 12 12 12 12 11 11 11 11 11 11 11 10 10 10
16 16 16 16 16 16 16 16 16 16 16 15 15 15 15 14 14 14 14 14 14 14 13 13 13 13 13 13 13 12 12 12 11 11 11 11 11 11 10 10 10 10 10 10
16 16 16 16 16 16 16 16 16 16 15 15 15 15 14 14 14 13 13 13 13 13 13 13 13 12 12 12 12 12 11 11 11 11 11 11 10 10 10 10 10 10 9 9
16 16 16 16 16 16 16 16 15 15 15 15 15 14 14 14 14 13 13 13 13 13 12 12 12 12 12 12 12 11 11 11 11 11 10 10 10 10 10 10 9 9 9 9
15 15 15 15 15 15 15 15 15 15 15 14 14 14 14 13 13 13 13 12 12 12 12 12 11 11 11 11 11 11 11 11 10 10 10 10 10 9 9 9 9 9 9 8
15 15 15 15 15 15 15 15 15 14 14 14 14 14 13 13 13 12 12 12 11 11 11 11 11 11 11 11 10 10 10 10 10 10 10 9 9 9 9 9 9 8 8 8
15 15 15 14 14 14 14 14 14 14 14 13 13 13 13 12 12 12 12 12 11 11 11 11 10 10 10 10 10 10 10 10 9 9 9 9 9 9 8 8 8 8 8 7
14 14 14 14 14 14 14 13 13 13 13 13 13 12 12 12 12 12 11 11 11 10 10 10 10 10 10 9 9 9 9 9 9 9 9 8 8 8 8 8 8 7 7 7
13 13 13 13 13 13 13 13 13 13 13 12 12 12 12 11 11 11 11 10 10 10 10 10 10 9 9 9 9 9 9 8 8 8 8 8 8 7 7 7 7 7 7 6
13 13 13 13 12 12 12 12 12 12 12 11 11 11 11 11 11 10 10 10 9 9 9 9 9 9 9 9 8 8 8 8 8 8 7 7 7 7 7 7 7 6 6 6
12 12 12 12 12 12 12 11 11 11 11 11 10 10 10 10 10 9 9 9 9 9 9 8 8 8 8 8 8 8 8 7 7 7 7 7 6 6 6 6 6 6 5 5
11 11 11 11 11 11 11 11 11 10 10 10 10 9 9 9 9 9 9 8 8 8 8 8 8 8 8 8 7 7 7 7 7 6 6 6 6 6 6 5 5 5 5 4
Wind_Speed
5 5 4 5 5 6 5 7 7 7 7 8 8 7 7 6 6 7 7 8 9 9 9 8 8 8 9 9 8 9 8 8 7 6 6 6 6 5 5 5 5 5 5 4
2 3 3 4 5 6 6 6 6 5 5 6 5 4 5 6 7 8 8 9 9 9 9 9 10 10 9 9 9 9 9 8 7 7 6 6 6 6 6 5 5 5 5 5
2 3 1 4 6 6 5 5 7 8 8 5 4 5 7 7 8 9 9 9 9 9 9 10 9 10 10 10 8 9 8 8 7 7 7 7 7 7 6 5 5 5 4 4
1 1 3 7 4 4 5 4 5 5 6 8 8 6 5 6 8 8 8 9 9 8 8 7 8 7 8 8 9 9 8 8 8 8 8 7 7 7 6 5 5 5 4 4
3 2 4 5 2 2 4 2 3 6 6 7 7 4 1 3 5 8 9 9 9 9 8 7 8 8 8 8 8 8 8 8 8 8 8 8 7 7 5 5 5 4 4 4
4 3 5 6 4 2 5 1 2 5 7 7 7 3 4 4 4 4 5 6 7 6 6 7 7 8 9 8 8 8 9 8 8 8 8 8 7 6 5 5 5 5 4 4
4 4 6 6 3 3 4 6 3 5 7 7 6 6 5 3 3 4 5 6 6 7 7 7 8 10 9 8 9 8 7 7 7 7 8 7 6 5 6 6 6 5 4 3
5 4 7 4 3 5 6 3 3 5 6 6 5 4 4 4 4 4 5 5 6 7 5 5 7 10 9 8 8 7 7 7 7 6 7 6 6 5 6 7 6 5 4 2
7 7 6 4 5 4 5 4 3 4 6 7 6 4 4 4 4 4 5 6 6 7 6 4 5 8 9 7 7 7 7 7 7 6 5 6 7 6 5 5 5 5 4 3
2 4 4 3 2 3 5 5 4 5 7 7 6 6 5 4 4 4 4 5 6 7 7 5 5 6 7 6 7 8 8 7 7 7 6 5 5 5 5 5 5 5 5 4
2 3 1 2 2 4 3 5 5 5 5 7 8 6 5 5 4 4 5 5 6 7 7 6 6 5 5 7 9 8 8 7 6 6 6 5 4 3 5 4 6 7 5 5
6 7 5 5 4 5 6 5 6 6 4 4 6 6 5 5 4 5 5 5 6 6 6 6 6 5 5 7 9 9 8 7 6 5 5 5 5 3 2 2 4 6 6 6
6 5 5 5 4 5 6 6 6 6 7 5 4 5 6 5 4 5 6 6 6 6 6 6 6 6 5 7 8 9 8 7 6 6 5 5 5 5 3 2 3 3 4 5
4 4 3 3 4 5 6 6 5 5 5 5 5 5 6 6 6 6 6 5 6 6 6 6 6 5 5 6 8 8 7 7 6 5 5 5 6 5 5 4 2 0 0 3
4 5 6 4 4 5 6 7 7 5 4 4 5 6 7 7 7 5 5 5 6 6 5 6 6 5 5 6 7 7 7 6 5 5 4 5 5 4 4 4 4 2 1 1
3 2 4 5 6 7 8 8 8 6 6 5 5 6 6 7 6 5 5 6 7 6 5 5 5 4 5 7 7 6 6 8 7 6 5 4 4 4 4 4 4 3 3 2
5 5 5 5 6 7 7 8 9 8 7 6 6 7 7 7 7 6 5 5 6 6 5 5 4 4 5 6 6 5 5 6 8 6 5 5 5 5 4 4 4 3 3 3
8 9 9 9 8 7 6 6 7 7 7 7 7 8 8 8 8 7 5 5 6 5 4 3 4 5 5 5 5 5 5 5 5 5 4 4 4 4 4 4 4 4 2 2
6 7 7 8 8 7 7 7 7 7 7 8 9 9 8 8 7 7 7 7 7 5 2 3 5 5 5 5 5 4 5 5 4 4 4 5 4 4 4 4 3 3 3 3
6 7 7 7 7 7 7 6 7 7 7 8 9 9 8 7 7 7 7 5 3 3 4 4 5 5 4 5 6 4 5 5 5 4 4 4 4 4 3 3 3 3 3 3
7 7 7 7 6 7 7 8 8 8 7 9 10 10 9 7 7 7 7 4 2 3 5 6 5 4 3 5 6 4 5 5 4 4 4 4 3 3 3 3 3 3 3 3
6 7 7 7 7 6 5 6 7 8 8 8 9 9 9 8 7 6 4 4 4 6 5 4 3 5 6 6 4 5 5 4 4 4 3 3 3 3 2 3 3 3 3 3
5 6 7 7 7 7 5 6 7 8 9 10 10 10 9 7 7 7 5 3 4 6 5 4 6 8 8 5 4 5 5 4 4 3 3 3 3 3 3 2 2 2 2 2
4 5 6 6 7 7 6 5 6 6 8 8 8 9 9 7 4 3 4 6 7 7 5 6 9 9 8 5 4 4 4 3 3 3 3 3 2 2 2 2 2 1 2 2
5 6 7 8 8 7 7 7 7 7 8 6 7 6 5 5 6 5 5 6 7 7 5 6 9 8 6 4 4 4 3 3 3 3 3 3 2 2 2 2 2 2 1 1
5 5 6 6 6 6 7 7 7 6 7 7 6 5 5 5 6 6 5 5 6 7 5 4 5 5 4 4 4 4 3 4 4 3 3 3 3 2 2 2 2 1 1 1
5 5 5 4 4 5 6 7 7 7 7 8 7 5 6 6 6 6 6 5 5 5 4 4 4 4 4 4 4 4 3 3 3 3 3 3 2 2 2 2 2 2 2 2
Wind_Direction
221 225 198 214 215 200 188 183 181 204 205 221 212 194 181 170 164 160 163 169 174 178 182 182 180 177 175 173 170 167 163 165 172 170 161 153 150 146 142 139 139 139 132 127
264 247 230 234 229 208 202 186 186 185 224 223 202 182 163 166 169 174 175 180 181 179 179 182 182 179 176 174 174 166 166 173 170 161 157 156 154 147 137 134 132 124 124 130
257 297 354 258 231 205 196 190 179 201 217 179 165 177 181 180 181 184 183 183 182 183 184 186 184 179 178 177 168 163 165 166 167 163 161 162 157 145 143 144 136 127 128 129
163 75 227 249 260 185 177 202 196 184 180 172 175 176 178 181 180 188 187 185 184 185 185 183 176 170 166 163 163 165 164 166 170 168 165 160 155 154 155 151 147 144 147 142
138 182 268 286 285 166 160 226 207 174 168 161 141 97 6 227 188 191 189 184 184 184 178 171 168 163 153 155 161 163 168 173 177 170 164 160 163 165 162 153 152 150 147 140
142 169 224 245 260 196 120 234 255 162 161 160 146 147 235 230 187 180 177 173 171 165 160 164 167 157 153 160 165 176 178 176 171 166 163 165 168 165 158 154 152 144 138 141
167 201 251 252 252 109 148 224 232 175 165 158 173 189 199 182 163 163 162 158 153 150 161 174 167 158 159 162 177 183 172 166 163 164 164 163 156 153 149 145 140 140 136 131
160 187 244 255 134 166 205 206 160 159 163 155 157 149 147 151 153 145 142 141 145 149 157 163 162 160 162 174 180 166 156 155 156 155 159 157 145 146 145 142 140 143 137 125
185 210 234 226 196 199 165 149 156 152 154 147 142 142 136 143 144 140 139 142 147 146 142 145 159 159 163 175 163 149 147 151 148 142 140 141 144 144 142 144 148 153 152 157
191 251 248 229 192 155 147 148 156 150 148 143 140 142 135 138 132 128 133 139 140 137 140 149 158 160 161 157 151 147 150 150 147 141 137 135 138 145 151 159 161 162 164 168
205 250 272 261 195 155 122 115 122 127 138 145 141 144 144 141 138 136 132 132 136 142 146 156 161 160 152 148 146 146 149 151 150 147 145 141 139 152 164 181 181 176 183 178
215 215 189 220 209 164 143 145 146 134 117 128 141 146 140 140 142 136 132 130 131 134 139 147 145 149 151 151 149 148 150 153 152 148 145 144 140 113 77 134 164 174 177 174
207 209 195 199 183 166 153 153 152 144 144 141 134 137 137 134 132 130 128 131 141 143 143 141 139 142 150 151 149 153 155 155 154 154 156 159 156 151 139 51 67 133 162 169
177 149 165 188 183 173 152 144 130 122 131 135 134 131 131 125 124 129 137 142 137 132 131 133 133 140 150 148 148 149 148 151 154 161 166 168 166 164 161 158 153 85 130 157
204 183 182 178 159 152 143 135 130 130 131 124 131 136 139 138 139 140 140 133 123 119 125 128 127 135 141 141 144 145 146 151 151 149 155 160 158 155 158 161 162 160 119 102
210 172 156 154 162 161 153 149 151 162 159 149 147 148 148 146 140 130 129 132 130 133 138 136 136 142 140 138 137 141 146 151 148 148 151 149 150 155 160 162 165 168 176 181
167 185 181 176 176 175 173 169 166 167 165 160 160 150 138 130 126 125 126 133 134 134 137 139 144 139 136 136 139 142 142 148 147 145 153 159 163 168 168 167 171 181 194 183
191 196 187 178 176 174 176 169 164 165 166 163 153 143 142 144 147 146 138 127 114 103 109 132 134 130 132 135 137 139 142 148 155 157 160 163 165 165 163 167 174 181 190 184
188 185 183 179 176 170 169 169 167 167 164 154 151 153 152 148 145 141 134 129 130 133 149 132 121 122 128 139 134 134 140 144 147 150 154 156 153 153 158 168 177 183 178 174
185 183 182 179 171 166 166 165 160 158 158 150 145 142 140 141 138 134 128 127 149 164 156 132 126 128 135 142 132 135 138 140 142 145 145 151 157 161 165 170 173 174 176 181
183 178 172 171 172 169 166 161 158 160 158 151 150 152 151 146 140 135 131 129 154 137 130 124 124 128 129 127 122 128 132 135 139 143 147 153 157 160 165 169 171 175 179 182
173 165 167 166 162 164 167 160 157 154 152 148 144 143 140 140 137 130 133 153 161 140 131 128 131 128 125 116 118 121 123 127 132 135 140 146 150 154 161 167 176 181 182 183
166 166 165 164 162 159 151 150 151 152 154 152 150 152 151 152 154 149 149 160 150 135 130 137 133 124 116 110 114 117 123 126 130 136 141 144 146 149 156 163 174 177 182 185
153 158 160 152 140 138 143 148 143 145 143 142 146 150 145 140 130 128 137 142 141 130 128 132 124 118 113 114 119 122 124 126 132 137 138 136 137 140 145 148 152 157 163 168
147 145 142 141 143 150 149 137 125 125 125 126 126 128 132 143 146 145 138 143 141 127 126 128 121 117 118 123 126 127 130 134 131 131 133 135 135 135 140 146 152 150 150 164
150 153 155 157 155 150 147 142 140 141 136 133 131 130 127 125 129 133 135 138 138 131 132 137 134 125 127 129 128 127 126 125 120 119 125 130 133 136 143 146 143 143 151 162
139 136 130 126 131 140 142 143 144 148 149 147 144 143 141 139 138 139 138 139 140 139 138 137 137 137 134 131 129 127 126 123 123 124 127 129 134 141 145 139 139 139 144 151
Height
1500 1497 1497 1498 1498 1500 1504 1508 1516 1512 1510 1504 1501 1500 1502 1504 1506 1508 1510 1512 1514 1517 1520 1523 1526 1529 1532 1535 1539 1542 1544 1547 1549 1551 1554 1555 1557 1558 1560 1562 1563 1564 1566 1567
1500 1495 1495 1497 1495 1495 1497 1500 1503 1504 1505 1498 1498 1499 1501 1503 1505 1507 1508 1510 1512 1515 1517 1520 1523 1526 1530 1533 1537 1540 1542 1545 1548 1550 1552 1554 1556 1557 1559 1561 1562 1563 1565 1566
1508 1500 1498 1503 1493 1493 1494 1493 1497 1502 1499 1496 1498 1498 1499 1501 1503 1504 1506 1508 1510 1512 1515 1517 1520 1523 1527 1530 1534 1537 1540 1543 1546 1548 1550 1552 1554 1556 1558 1559 1561 1562 1564 1565
1509 1507 1514 1499 1485 1485 1489 1490 1490 1491 1491 1492 1494 1496 1498 1499 1501 1502 1504 1506 1508 1510 1512 1515 1518 1521 1525 1529 1532 1535 1538 1541 1544 1546 1548 1550 1552 1554 1556 1558 1559 1561 1562 1564
1512 1513 1507 1493 1485 1485 1488 1492 1488 1489 1490 1492 1494 1496 1498 1499 1500 1501 1502 1503 1505 1508 1510 1513 1516 1519 1523 1526 1530 1533 1536 1539 1541 1544 1546 1548 1550 1552 1554 1556 1558 1559 1560 1562
1509 1511 1512 1495 1483 1481 1486 1495 1487 1486 1488 1490 1492 1499 1499 1497 1498 1499 1501 1502 1504 1506 1509 1512 1514 1517 1520 1524 1527 1530 1533 1536 1539 1542 1544 1546 1548 1550 1552 1554 1556 1557 1559 1560
1506 1507 1500 1485 1481 1482 1497 1495 1485 1485 1486 1488 1490 1492 1494 1495 1496 1497 1499 1500 1502 1505 1507 1510 1513 1516 1518 1521 1524 1528 1532 1535 1537 1540 1542 1545 1547 1549 1551 1553 1554 1555 1557 1558
1502 1506 1501 1479 1480 1485 1485 1481 1482 1484 1485 1487 1488 1490 1492 1493 1494 1496 1497 1498 1500 1503 1505 1508 1511 1514 1516 1519 1523 1527 1529 1532 1535 1537 1540 1542 1545 1547 1549 1551 1552 1553 1554 1556
1490 1490 1480 1477 1477 1478 1478 1479 1481 1482 1484 1485 1487 1489 1491 1492 1493 1494 1495 1497 1499 1501 1504 1507 1509 1511 1513 1517 1521 1524 1527 1530 1532 1535 1537 1540 1542 1544 1546 1548 1550 1551 1552 1553
1483 1479 1476 1476 1476 1477 1477 1478 1480 1482 1483 1484 1486 1488 1490 1491 1492 1493 1494 1496 1498 1500 1502 1504 1507 1509 1512 1515 1519 1522 1525 1528 1530 1533 1535 1537 1540 1542 1544 1546 1547 1549 1550 1551
1480 1477 1476 1476 1476 1477 1478 1479 1480 1482 1483 1484 1485 1487 1489 1490 1491 1492 1494 1495 1497 1499 1500 1503 1505 1508 1511 1514 1517 1519 1522 1525 1528 1531 1533 1535 1537 1540 1542 1544 1545 1547 1547 1549
1477 1473 1474 1474 1475 1476 1477 1478 1480 1481 1482 1484 1485 1486 1487 1489 1490 1492 1493 1495 1496 1498 1500 1502 1504 1506 1509 1512 1515 1517 1520 1523 1526 1528 1531 1533 1535 1537 1540 1542 1543 1544 1546 1547
1468 1469 1470 1472 1474 1475 1476 1478 1479 1481 1482 1483 1484 1485 1486 1488 1490 1491 1493 1494 1496 1498 1499 1502 1504 1506 1508 1511 1513 1516 1518 1520 1523 1526 1528 1531 1533 1535 1536 1539 1541 1542 1543 1544
1466 1467 1469 1470 1472 1474 1475 1477 1479 1480 1481 1482 1483 1485 1486 1487 1489 1491 1492 1494 1496 1497 1499 1501 1502 1505 1507 1509 1512 1514 1516 1519 1521 1524 1526 1528 1530 1532 1534 1536 1537 1539 1540 1542
1464 1465 1467 1469 1471 1473 1474 1476 1477 1479 1480 1482 1483 1484 1485 1487 1488 1490 1492 1494 1495 1497 1498 1500 1502 1504 1506 1508 1510 1512 1515 1517 1519 1522 1524 1526 1529 1530 1532 1534 1535 1536 1537 1539
1462 1463 1465 1467 1468 1470 1472 1474 1476 1477 1479 1481 1482 1484 1485 1487 1488 1490 1492 1493 1494 1496 1498 1499 1501 1503 1505 1507 1509 1511 1513 1515 1517 1520 1522 1524 1526 1528 1530 1531 1532 1533 1535 1536
1459 1461 1463 1464 1466 1468 1470 1472 1473 1475 1477 1479 1481 1483 1485 1486 1488 1489 1491 1493 1494 1496 1497 1499 1500 1502 1504 1506 1508 1509 1512 1514 1516 1518 1520 1522 1524 1525 1527 1528 1529 1531 1532 1533
1456 1457 1459 1461 1463 1465 1468 1470 1472 1474 1475 1477 1480 1482 1483 1485 1486 1488 1490 1492 1494 1495 1497 1498 1500 1502 1503 1505 1507 1508 1510 1512 1514 1516 1518 1520 1521 1523 1524 1526 1527 1528 1529 1530
1452 1454 1457 1459 1461 1463 1465 1467 1469 1472 1474 1476 1478 1480 1482 1484 1485 1487 1489 1491 1492 1493 1495 1497 1499 1501 1502 1504 1506 1507 1509 1511 1512 1514 1516 1517 1519 1521 1522 1523 1524 1525 1526 1526
1449 1451 1454 1456 1458 1460 1462 1465 1467 1470 1472 1473 1475 1478 1480 1482 1484 1486 1488 1490 1491 1493 1494 1496 1498 1499 1501 1503 1504 1506 1507 1509 1510 1512 1514 1515 1516 1518 1519 1520 1521 1522 1522 1523
1445 1448 1450 1453 1455 1457 1460 1462 1464 1467 1469 1471 1473 1475 1478 1481 1483 1485 1487 1488 1491 1492 1494 1495 1497 1498 1500 1501 1503 1504 1506 1507 1509 1510 1512 1513 1514 1515 1516 1517 1518 1518 1519 1519
1443 1445 1447 1450 1452 1455 1457 1459 1462 1464 1467 1469 1472 1474 1477 1479 1481 1484 1486 1488 1489 1491 1493 1494 1496 1497 1499 1500 1501 1503 1504 1506 1507 1508 1510 1511 1512 1512 1513 1514 1515 1515 1515 1516
1440 1442 1445 1447 1450 1452 1455 1457 1460 1462 1465 1467 1469 1472 1474 1477 1479 1481 1484 1487 1488 1490 1492 1493 1495 1496 1498 1499 1500 1502 1503 1504 1505 1506 1507 1508 1509 1510 1510 1511 1511 1512 1512 1512
1438 1440 1443 1445 1448 1450 1452 1455 1458 1461 1463 1466 1468 1471 1473 1476 1479 1481 1483 1485 1487 1489 1491 1492 1494 1495 1497 1498 1499 1500 1501 1502 1503 1504 1505 1506 1507 1507 1508 1508 1508 1508 1508 1508
1436 1438 1441 1443 1445 1448 1451 1454 1456 1459 1462 1465 1467 1470 1473 1475 1477 1479 1482 1484 1486 1488 1489 1491 1493 1494 1495 1496 1498 1499 1500 1501 1502 1502 1503 1504 1504 1504 1505 1505 1505 1505 1505 1505
1435 1437 1439 1441 1444 1447 1449 1452 1455 1458 1460 1463 1465 1468 1471 1474 1476 1478 1480 1482 1484 1486 1488 1490 1491 1493 1494 1495 1496 1497 1498 1498 1499 1500 1501 1501 1502 1502 1502 1502 1502 1502 1501 1501
1434 1436 1438 1441 1443 1446 1448 1451 1453 1456 1459 1461 1463 1467 1469 1472 1474 1477 1479 1481 1483 1485 1486 1488 1489 1491 1492 1493 1494 1495 1496 1497 1497 1498 1498 1499 1499 1499 1499 1499 1499 1498 1498 1497